Regional Weather Roundup
Issued by NWS

Home | Current Version | Previous Version | Graphics & Text | Print | Product List | Glossary On
Versions: 1 2 3 4 5 6 7 8 9 10 11 12 13 14 15 16 17 18 19 20 21 22 23 24 25 26 27 28 29 30 31 32 33 34 35 36 37 38 39 40 41 42 43 44 45 46 47 48 49 50
000
ASUS43 KLOT 310704
RWRIL

ILLINOIS REGIONAL WEATHER ROUNDUP
NATIONAL WEATHER SERVICE CHICAGO/ROMEOVILLE IL
200 AM CDT WED AUG 31 2016

NOTE: "FAIR" INDICATES FEW OR NO CLOUDS BELOW 12,000 FEET WITH NO
SIGNIFICANT WEATHER AND/OR OBSTRUCTIONS TO VISIBILITY.

* THESE STATIONS ARE NOT UNDER NWS QUALITY CONTROL. THEY ALSO MAY NOT
  REPORT WEATHER SUCH AS PRECIPITATION OR FOG.

ILZ001-002-007-009-015-016-024-310800-
NORTHWEST ILLINOIS

CITY           SKY/WX    TMP DP  RH WIND       PRES   REMARKS
MOLINE         CLOUDY    74  70  87 CALM      30.08F
STERLING*      PTCLDY    70  69  97 NW5       30.08F
SAVANNA*       MOCLDY    69  68  96 N6        30.09S
$$

ILZ003-004-008-010-011-017-018-310800-
NORTH CENTRAL ILLINOIS

CITY           SKY/WX    TMP DP  RH WIND       PRES   REMARKS
ROCKFORD       CLOUDY    71  68  90 N7        30.08F
FREEPORT*      MOCLDY    67  66  96 NW6       30.11S
ROCHELLE*      PTCLDY    67  67 100 CALM      30.08S FOG
$$

ILZ005-006-012>014-019>023-310800-
NORTHEAST ILLINOIS

CITY           SKY/WX    TMP DP  RH WIND       PRES   REMARKS
CHICAGO-OHARE  MOCLDY    71  67  87 NW5       30.04S
CHICAGO-MIDWAY CLOUDY    73  67  81 W3        30.03F
AURORA         CLEAR     68  66  93 NW5       30.06S FOG
LANSING*       CLOUDY    70  70  99 CALM      30.04F
JOLIET*        CLOUDY    70  69  97 CALM      30.06S
WAUKEGAN       PTCLDY    71  68  90 NW6       30.04S
DUPAGE AIRPORT CLEAR     69  66  90 CALM      30.05S
KANKAKEE*      CLOUDY    72  71  96 CALM      30.05F
WHEELING       MOCLDY    72  68  87 NW6       30.05F
MORRIS*        CLOUDY    69  67  95 CALM      30.04F
ROMEOVILLE*    CLOUDY    68  68 100 CALM      30.05F
NORTHERLY ISL    N/A     74  65  73 W3          N/A
$$

LMZ740>746-310800-
SOUTHERN LAKE MICHIGAN

STATION/POSITION SKY/WX   TEMP    WIND        PRES    VSBY  WAVE
                          AIR SEA DIR/SP/G                  HT/PER
                          (F)     (DEG/KT/KT) (MB)    (MI)  (FT/S)
SOUTHERN BUOY              74 75  260/  8/ 10 1016.3          0
WILMETTE HARBOR            73 74  290/  4/  6   N/A           0
HARRISON CRIB              75     290/  4/  4   N/A
BURNHAM HARBOR             74     260/  3/  5   N/A
CALUMET HARBOR             73      CALM  /  3 1016.9F
BURNS HARBOR               74     330/  3/  6 1017.6F
MICHIGAN CITY              73     320/  8/  8   N/A
MICHIGAN CITY 6N           74 73  350/  6/  8   N/A           1
ST. JOSEPH                 74 72  330/  4/  6 1016.7F         1
$$

ILZ025>027-034>036-040-047-049-050-058-095>099-310800-
WEST-CENTRAL ILLINOIS

CITY           SKY/WX    TMP DP  RH WIND       PRES   REMARKS
QUINCY         CLOUDY    72  70  93 W3        30.08F FOG
GALESBURG*     CLOUDY    71  70  97 NW3       30.09S
MACOMB*        CLOUDY    72  70  95 NW6       30.10F
JACKSONVILLE*  PTCLDY    69  68  97 W3        30.07F FOG
PITTSFIELD*    PTCLDY    71  70  98 W3        30.09F
$$

ILZ028>032-037-038-041>044-048-051>054-059>061-310800-
CENTRAL ILLINOIS

CITY           SKY/WX    TMP DP  RH WIND       PRES   REMARKS
PONTIAC        CLOUDY    71  71 100 CALM      30.06S FOG
BLOOMINGTON    CLOUDY    73  72  96 NW6       30.07F
DECATUR        PTCLDY    73  70  90 W3        30.06F
PEORIA         CLOUDY    72  72 100 NW5       30.07S
LACON*         CLOUDY    70  69  97 CALM      30.05F
LINCOLN*       CLEAR     72  72 100 CALM      30.06F
SPRINGFIELD    CLOUDY    70  69  97 W3        30.07F FOG
TAYLORVILLE    FOG       68  68 100 CALM      30.07F VSB 3/4
$$

ILZ033-039-045-046-055>057-062-063-310800-
EAST-CENTRAL ILLINOIS

CITY           SKY/WX    TMP DP  RH WIND       PRES   REMARKS
CHAMPAIGN      PTCLDY    70  68  93 W5        30.06F FOG
RANTOUL*       PTCLDY    72  72  98 W3        30.05F FOG
MATTOON        CLOUDY    70  67  90 W5        30.05F
PARIS*         CLOUDY    71  71 100 CALM      30.05F FOG
$$

ILZ079-100>102-310800-
SOUTHWEST ILLINOIS

CITY           SKY/WX    TMP DP  RH WIND       PRES   REMARKS
ALTON          FOG       70  70 100 CALM      30.08F VSB 1/4
BELLEVILLE     PTCLDY    71  71 100 CALM      30.06F
CAHOKIA*       PTCLDY    72  70  93 CALM      30.08F FOG
SPARTA*        CLOUDY    70  70  99 W3        30.09S FOG
$$

ILZ064>066-069>071-074>076-080>082-084>086-088>090-092>094-310800-
SOUTH-CENTRAL ILLINOIS

CITY           SKY/WX    TMP DP  RH WIND       PRES   REMARKS
CARBONDALE     CLEAR     71  69  93 NW3       30.07S
EFFINGHAM*     CLOUDY    70  70 100 CALM      30.07F FOG
MARION         CLEAR     73  72  94 CALM      30.07S
MT. VERNON     CLOUDY    72  66  83 CALM      30.07S
CENTRALIA*     CLEAR     72  72 100 NW3       30.06S FOG
SALEM*         CLOUDY    72  70  95 W3        30.07S FOG
METROPOLIS*    CLEAR     75  73  93 CALM      30.05S
$$

ILZ067-068-072-073-078-083-087-091-310800-
SOUTHEAST ILLINOIS

CITY           SKY/WX    TMP DP  RH WIND       PRES   REMARKS
LAWRENCEVILLE  CLOUDY    74  74 100 CALM      30.04F
FLORA*         CLOUDY    74  72  93 CALM      30.06S
FAIRFIELD*       N/A     72  72  99 CALM      30.05S
HARRISBURG*    CLEAR     74  73  94 CALM      30.05F
ROBINSON*      CLOUDY    70  70 100 CALM      30.05F FOG
CARMI*         CLEAR     72  71  99 CALM      30.04F
$$

ABBREVIATIONS USED IN REMARKS
   TC - TEMPERATURE IN CELSIUS
  WCI - WIND CHILL INDEX
   HX - HEAT INDEX
  VSB - VISIBILITY
$$





USA.gov is the U.S. government's official web portal to all federal, state and local government web resources and services.